IT9NKT-WX Weather Reports


time (UTC)temp
C
wind
direction
speed
KPH
gust
KPH
rain 1hr
cm
rain 24hr
cm
rain mn
cm
humidity
%
barometer
mb
20260906095503 32 108 1.6 9.7 0.00 0.00 0.00 42 1020.0
20260906095003 33 137 3.2 6.4 0.00 0.00 0.00 41 1019.8
20260906094503 34 127 3.2 9.7 0.00 0.00 0.00 41 1019.9
20260906094003 33 112 1.6 9.7 0.00 0.00 0.00 40 1019.9
20260906093504 33 124 1.6 9.7 0.00 0.00 0.00 40 1019.9
20260906093003 33 124 1.6 9.7 0.00 0.00 0.00 38 1020.1
20260906092503 33 125 1.6 6.4 0.00 0.00 0.00 40 1020.0
20260906092004 33 129 1.6 6.4 0.00 0.00 0.00 39 1019.9
20260906091503 33 134 1.6 6.4 0.00 0.00 0.00 39 1020.1
20260906091003 33 124 3.2 9.7 0.00 0.00 0.00 39 1020.1
20260906090503 32 114 3.2 9.7 0.00 0.00 0.00 40 1020.3
20260906090003 33 109 1.6 6.4 0.00 0.00 0.00 39 1020.2
20260906085503 33 124 1.6 6.4 0.00 0.00 0.00 37 1020.1
20260906085003 33 154 1.6 4.8 0.00 0.00 0.00 36 1020.0
20260906084503 33 144 1.6 4.8 0.00 0.00 0.00 37 1020.1
20260906084003 34 135 1.6 4.8 0.00 0.00 0.00 36 1020.0
20260906083503 33 163 1.6 9.7 0.00 0.00 0.00 37 1020.1
20260906083003 33 171 1.6 9.7 0.00 0.00 0.00 37 1020.0
20260906082503 33 164 1.6 4.8 0.00 0.00 0.00 38 1020.1
20260906082003 33 174 1.6 4.8 0.00 0.00 0.00 38 1019.9
20260906081504 32 168 1.6 4.8 0.00 0.00 0.00 40 1019.8
20260906081213 32 155 1.6 4.8 0.00 0.00 0.00 41 1020.0
20260906080503 31 116 1.6 4.8 0.00 0.00 0.00 44 1019.9
20260906080003 32 125 1.6 9.7 0.00 0.00 0.00 44 1019.9
20260906075503 32 133 1.6 9.7 0.00 0.00 0.00 44 1019.9
20260906075216 32 135 1.6 4.8 0.00 0.00 0.00 44 1019.9
20260906074504 31 111 1.6 3.2 0.00 0.00 0.00 46 1019.7
20260906074216 31 100 1.6 4.8 0.00 0.00 0.00 45 1019.8
20260906073504 31 170 1.6 6.4 0.00 0.00 0.00 46 1019.6
20260906073004 31 177 1.6 6.4 0.00 0.00 0.00 46 1019.7
20260906072715 31 158 1.6 6.4 0.00 0.00 0.00 47 1019.6
20260906072003 31 123 1.6 4.8 0.00 0.00 0.00 48 1019.6
20260906071503 31 168 1.6 4.8 0.00 0.00 0.00 47 1019.5
20260906071004 31 170 1.6 4.8 0.00 0.00 0.00 48 1019.6
20260906070503 31 179 1.6 3.2 0.00 0.00 0.00 49 1019.4
20260906070003 31 183 1.6 3.2 0.00 0.00 0.00 45 1019.4
20260906065504 31 184 1.6 3.2 0.00 0.00 0.00 46 1019.2
20260906065003 31 177 1.6 3.2 0.00 0.00 0.00 46 1019.4
20260906064503 31 171 0.0 3.2 0.00 0.00 0.00 47 1019.4
20260906064003 31 187 0.0 1.6 0.00 0.00 0.00 47 1019.3
20260906063504 31 175 0.0 1.6 0.00 0.00 0.00 47 1019.2
20260906063004 31 172 0.0 1.6 0.00 0.00 0.00 50 1019.3
20260906062716 31 170 0.0 1.6 0.00 0.00 0.00 50 1019.3
20260906062003 30 163 0.0 3.2 0.00 0.00 0.00 51 1019.4
20260906061504 31 180 0.0 1.6 0.00 0.00 0.00 50 1019.2
20260906061003 30 187 0.0 1.6 0.00 0.00 0.00 51 1019.4
20260906060713 30 183 0.0 1.6 0.00 0.00 0.00 50 1019.4
20260906060004 30 159 0.0 1.6 0.00 0.00 0.00 47 1019.3
20260906055503 29 155 0.0 1.6 0.00 0.00 0.00 46 1019.3
20260906055003 28 175 0.0 1.6 0.00 0.00 0.00 46 1019.3
20260906054503 28 172 0.0 1.6 0.00 0.00 0.00 47 1019.4
20260906054003 28 190 0.0 1.6 0.00 0.00 0.00 47 1019.3
20260906053504 28 187 0.0 0.0 0.00 0.00 0.00 47 1019.5
20260906053213 28 176 0.0 1.6 0.00 0.00 0.00 48 1019.3
20260906052503 27 161 0.0 3.2 0.00 0.00 0.00 50 1019.2
20260906052004 26 164 0.0 3.2 0.00 0.00 0.00 50 1019.2
20260906051503 26 180 0.0 3.2 0.00 0.00 0.00 51 1019.1
20260906051003 26 197 0.0 1.6 0.00 0.00 0.00 52 1019.0
20260906050503 25 204 0.0 1.6 0.00 0.00 0.00 53 1019.2
20260906050003 25 209 1.6 3.2 0.00 0.00 0.00 54 1019.2
20260906045714 25 210 1.6 3.2 0.00 0.00 0.00 54 1019.2
20260906045003 25 213 1.6 3.2 0.00 0.00 0.00 54 1019.2
20260906044504 25 215 1.6 3.2 0.00 0.00 0.00 55 1019.2
20260906044004 25 216 1.6 3.2 0.00 0.00 0.00 54 1019.4
20260906043504 25 223 1.6 3.2 0.00 0.00 0.00 55 1019.3
20260906043003 25 229 1.6 1.6 0.00 0.00 0.00 54 1019.1
20260906042503 25 221 1.6 1.6 0.00 0.00 0.00 55 1019.2
20260906042003 25 209 0.0 1.6 0.00 0.00 0.00 56 1019.0
20260906041504 25 212 0.0 1.6 0.00 0.00 0.00 56 1019.0
20260906041003 24 228 0.0 1.6 0.00 0.00 0.00 57 1019.1
20260906040504 25 223 0.0 1.6 0.00 0.00 0.00 57 1019.0
20260906040004 25 222 0.0 1.6 0.00 0.00 0.00 58 1018.9
20260906035504 25 205 0.0 1.6 0.00 0.00 0.00 59 1018.8
20260906035003 25 218 0.0 1.6 0.00 0.00 0.00 58 1018.8
20260906034503 25 221 0.0 1.6 0.00 0.00 0.00 58 1018.9
20260906034004 25 223 0.0 1.6 0.00 0.00 0.00 56 1018.7
20260906033504 25 257 0.0 1.6 0.00 0.00 0.00 56 1019.0
20260906033215 26 266 1.6 3.2 0.00 0.00 0.00 57 1018.9
20260906032504 26 281 1.6 3.2 0.00 0.00 0.00 57 1019.0
20260906032003 26 281 1.6 3.2 0.00 0.00 0.00 57 1018.8
20260906031714 26 277 1.6 3.2 0.00 0.00 0.00 57 1018.7
20260906031004 25 249 0.0 1.6 0.00 0.00 0.00 57 1018.8
20260906030504 25 247 1.6 1.6 0.00 0.00 0.00 58 1018.8
20260906030003 26 246 1.6 3.2 0.00 0.00 0.00 58 1018.8
20260906025715 26 252 1.6 3.2 0.00 0.00 0.00 57 1018.8
20260906025213 26 255 1.6 3.2 0.00 0.00 0.00 55 1018.6
20260906024503 26 237 0.0 1.6 0.00 0.00 0.00 53 1018.9
20260906024003 26 244 0.0 1.6 0.00 0.00 0.00 53 1018.8
20260906023504 26 253 0.0 1.6 0.00 0.00 0.00 52 1018.7
20260906023216 26 241 0.0 1.6 0.00 0.00 0.00 52 1018.7
20260906022713 26 247 0.0 1.6 0.00 0.00 0.00 52 1018.7
20260906022216 26 238 0.0 1.6 0.00 0.00 0.00 52 1018.7
20260906021503 26 230 0.0 1.6 0.00 0.00 0.00 53 1018.8
20260906021004 26 248 0.0 1.6 0.00 0.00 0.00 52 1018.7
20260906020504 26 271 1.6 3.2 0.00 0.00 0.00 51 1018.8
20260906020003 26 269 1.6 3.2 0.00 0.00 0.00 52 1018.8
20260906015503 26 263 1.6 3.2 0.00 0.00 0.00 51 1018.9
20260906015004 26 265 1.6 3.2 0.00 0.00 0.00 51 1018.9
20260906014717 26 262 0.0 3.2 0.00 0.00 0.00 52 1018.9
20260906014004 26 207 0.0 1.6 0.00 0.00 0.00 51 1018.9
20260906013503 25 196 0.0 1.6 0.00 0.00 0.00 52 1019.1
20260906013004 25 182 0.0 1.6 0.00 0.00 0.00 52 1018.8
20260906012503 25 166 0.0 1.6 0.00 0.00 0.00 53 1019.0
20260906012004 26 181 0.0 1.6 0.00 0.00 0.00 52 1019.1
20260906011503 25 191 0.0 1.6 0.00 0.00 0.00 53 1019.0
20260906011003 26 198 0.0 1.6 0.00 0.00 0.00 53 1019.0
20260906010716 26 201 0.0 1.6 0.00 0.00 0.00 53 1019.2
20260906010003 26 194 0.0 1.6 0.00 0.00 0.00 53 1019.1
20260906005504 26 184 0.0 1.6 0.00 0.00 0.00 53 1019.1
20260906005004 26 186 0.0 1.6 0.00 0.00 0.00 54 1019.1
20260906004503 26 181 0.0 1.6 0.00 0.00 0.00 54 1019.2
20260906004003 26 182 0.0 1.6 0.00 0.00 0.00 54 1019.2
20260906003503 26 190 0.0 1.6 0.00 0.00 0.00 55 1019.3
20260906003004 26 193 0.0 3.2 0.00 0.00 0.00 56 1019.2
20260906002715 26 192 0.0 3.2 0.00 0.00 0.00 56 1019.0
20260906002003 26 188 0.0 1.6 0.00 0.00 0.00 57 1019.4
20260906001503 26 204 0.0 1.6 0.00 0.00 0.00 57 1019.2
20260906001213 26 209 0.0 1.6 0.00 0.00 0.00 57 1019.1
20260906000503 26 206 0.0 1.6 0.00 0.00 0.00 58 1019.2
20260906000003 26 196 0.0 1.6 0.00 0.00 0.00 59 1019.3
20260905235718 26 199 0.0 1.6 0.00 0.00 0.00 59 1019.4
20260905235003 26 196 0.0 0.0 0.00 0.00 0.00 61 1019.4
20260905234504 26 196 0.0 1.6 0.00 0.00 0.00 62 1019.3
20260905234003 26 214 0.0 1.6 0.00 0.00 0.00 61 1019.4
20260905233714 26 0 0.0 0.0 0.00 0.00 0.00 61 1019.3
20260905233217 26 0 0.0 0.0 0.00 0.00 0.00 62 1019.5
20260905232504 26 0 0.0 0.0 0.00 0.00 0.00 64 1019.4
20260905232213 26 0 0.0 0.0 0.00 0.00 0.00 64 1019.5
20260905231504 26 0 0.0 0.0 0.00 0.00 0.00 64 1019.4
20260905230718 26 0 0.0 0.0 0.00 0.00 0.00 64 1019.6
20260905230003 26 0 0.0 0.0 0.00 0.00 0.00 64 1019.5
20260905225713 26 243 0.0 1.6 0.00 0.00 0.00 64 1019.7
20260905225216 26 243 0.0 1.6 0.00 0.00 0.00 64 1019.7
20260905224714 27 0 0.0 0.0 0.00 0.00 0.00 64 1019.8
20260905224004 27 0 0.0 0.0 0.00 0.00 0.00 63 1019.6
20260905223504 27 0 0.0 0.0 0.00 0.00 0.00 63 1019.5
20260905223003 27 0 0.0 0.0 0.00 0.00 0.00 64 1019.5
20260905222504 27 0 0.0 0.0 0.00 0.00 0.00 64 1019.4
20260905222004 27 0 0.0 0.0 0.00 0.00 0.00 63 1019.5
20260905221504 27 0 0.0 0.0 0.00 0.00 0.00 63 1019.6
20260905221215 27 0 0.0 0.0 0.00 0.00 0.00 63 1019.4
20260905220503 27 0 0.0 0.0 0.00 0.00 0.00 63 1019.6
20260905220007 27 0 0.0 0.0 0.00 0.00 0.00 63 1019.5
20260905215503 27 0 0.0 0.0 0.00 0.00 0.00 63 1019.5
20260905215003 27 0 0.0 0.0 0.00 0.00 0.00 63 1019.5
20260905214505 27 0 0.0 0.0 0.00 0.00 0.00 63 1019.5
20260905214003 27 210 0.0 1.6 0.00 0.00 0.00 63 1019.4
20260905213716 27 207 0.0 1.6 0.00 0.00 0.00 63 1019.4
20260905213004 27 197 0.0 1.6 0.00 0.00 0.00 62 1019.6
20260905212504 27 247 0.0 1.6 0.00 0.00 0.00 62 1019.6
20260905212004 27 199 0.0 1.6 0.00 0.00 0.00 63 1019.4
20260905211504 27 200 0.0 1.6 0.00 0.00 0.00 63 1019.5
20260905211004 27 201 0.0 1.6 0.00 0.00 0.00 63 1019.5
20260905210503 27 0 0.0 0.0 0.00 0.00 0.00 63 1019.6
20260905210004 27 202 0.0 1.6 0.00 0.00 0.00 63 1019.4
20260905205715 28 201 0.0 1.6 0.00 0.00 0.00 63 1019.3
20260905205004 28 206 0.0 1.6 0.00 0.00 0.00 63 1019.5
20260905204504 28 212 0.0 1.6 0.00 0.00 0.00 62 1019.4
20260905204003 28 0 0.0 0.0 0.00 0.00 0.00 62 1019.4
20260905203504 28 251 0.0 1.6 0.00 0.00 0.00 62 1019.4
20260905203215 28 249 0.0 1.6 0.00 0.00 0.00 62 1019.6
20260905202712 28 247 0.0 1.6 0.00 0.00 0.00 61 1019.4
20260905202004 28 260 0.0 1.6 0.00 0.00 0.00 62 1019.6
20260905201503 28 266 1.6 1.6 0.00 0.00 0.00 62 1019.7
20260905201004 28 284 1.6 3.2 0.00 0.00 0.00 62 1019.6
20260905200503 28 296 1.6 3.2 0.00 0.00 0.00 62 1019.6
20260905200004 28 302 1.6 3.2 0.00 0.00 0.00 62 1019.6
20260905195715 28 295 1.6 3.2 0.00 0.00 0.00 62 1019.5
20260905195004 28 290 1.6 3.2 0.00 0.00 0.00 62 1019.5
20260905194504 28 291 1.6 3.2 0.00 0.00 0.00 62 1019.7
20260905194214 28 294 1.6 3.2 0.00 0.00 0.00 62 1019.7
20260905193503 28 294 1.6 3.2 0.00 0.00 0.00 62 1019.7
20260905193003 28 275 0.0 1.6 0.00 0.00 0.00 62 1019.6
20260905192503 28 319 0.0 3.2 0.00 0.00 0.00 62 1019.6
20260905192003 28 307 1.6 3.2 0.00 0.00 0.00 62 1019.5
20260905191504 28 319 1.6 3.2 0.00 0.00 0.00 62 1019.5
20260905191003 28 339 1.6 3.2 0.00 0.00 0.00 61 1019.4
20260905190503 28 172 0.0 1.6 0.00 0.00 0.00 61 1019.1
20260905190219 28 154 0.0 1.6 0.00 0.00 0.00 61 1019.2
20260905185503 28 103 0.0 4.8 0.00 0.00 0.00 61 1019.1
20260905185005 29 79 1.6 4.8 0.00 0.00 0.00 61 1019.2
20260905184504 29 32 1.6 3.2 0.00 0.00 0.00 60 1019.1
20260905184004 29 36 0.0 3.2 0.00 0.00 0.00 59 1019.1
20260905183504 29 77 0.0 3.2 0.00 0.00 0.00 58 1019.0
20260905183216 29 80 1.6 3.2 0.00 0.00 0.00 57 1019.3
20260905182503 29 93 0.0 3.2 0.00 0.00 0.00 57 1019.2
20260905182004 29 100 0.0 3.2 0.00 0.00 0.00 57 1019.2
20260905181504 29 115 0.0 3.2 0.00 0.00 0.00 56 1019.1
20260905181003 29 107 0.0 3.2 0.00 0.00 0.00 56 1018.9
20260905180504 29 103 0.0 3.2 0.00 0.00 0.00 56 1018.9
20260905180214 29 110 1.6 4.8 0.00 0.00 0.00 55 1018.9
20260905175504 29 117 1.6 4.8 0.00 0.00 0.00 56 1018.7
20260905175005 29 116 1.6 4.8 0.00 0.00 0.00 56 1018.6
20260905174503 29 112 1.6 4.8 0.00 0.00 0.00 56 1018.7
20260905174003 29 110 0.0 4.8 0.00 0.00 0.00 57 1019.1
20260905173504 29 82 1.6 4.8 0.00 0.00 0.00 57 1018.8
20260905173004 29 69 1.6 4.8 0.00 0.00 0.00 56 1018.8
20260905172504 29 80 1.6 6.4 0.00 0.00 0.00 56 1018.7
20260905172003 29 87 1.6 6.4 0.00 0.00 0.00 57 1018.6
20260905171504 29 114 1.6 3.2 0.00 0.00 0.00 56 1018.8
20260905171004 29 129 1.6 4.8 0.00 0.00 0.00 56 1018.7
20260905170716 29 131 1.6 4.8 0.00 0.00 0.00 56 1018.8
20260905170003 29 148 3.2 6.4 0.00 0.00 0.00 55 1018.9
20260905165504 29 157 1.6 4.8 0.00 0.00 0.00 55 1019.0
20260905165215 29 156 1.6 4.8 0.00 0.00 0.00 56 1018.8
20260905164503 29 124 3.2 6.4 0.00 0.00 0.00 56 1018.9
20260905164003 29 124 3.2 9.7 0.00 0.00 0.00 57 1018.9
20260905163504 29 130 1.6 9.7 0.00 0.00 0.00 58 1018.7
20260905163004 29 118 1.6 6.4 0.00 0.00 0.00 59 1018.7
20260905162504 29 134 3.2 6.4 0.00 0.00 0.00 60 1018.7
20260905162004 29 149 3.2 11.3 0.00 0.00 0.00 60 1018.5
20260905161504 30 151 3.2 11.3 0.00 0.00 0.00 61 1018.7
20260905161003 30 144 1.6 9.7 0.00 0.00 0.00 61 1018.6
20260905160503 30 124 3.2 9.7 0.00 0.00 0.00 61 1018.6
20260905160004 30 113 3.2 9.7 0.00 0.00 0.00 62 1018.8
20260905155504 30 102 3.2 6.4 0.00 0.00 0.00 61 1018.7
20260905155003 30 93 3.2 8.0 0.00 0.00 0.00 62 1018.7
20260905154504 30 93 3.2 11.3 0.00 0.00 0.00 62 1018.6
20260905154003 30 100 3.2 11.3 0.00 0.00 0.00 61 1018.7
20260905153503 30 120 1.6 9.7 0.00 0.00 0.00 61 1018.8
20260905153213 30 101 1.6 8.0 0.00 0.00 0.00 61 1018.9
20260905152504 30 99 3.2 11.3 0.00 0.00 0.00 62 1018.7
20260905152003 30 123 3.2 11.3 0.00 0.00 0.00 62 1018.8
20260905151504 30 122 3.2 9.7 0.00 0.00 0.00 61 1018.7
20260905151003 30 118 4.8 12.9 0.00 0.00 0.00 61 1018.8
20260905150503 30 102 3.2 12.9 0.00 0.00 0.00 59 1018.8
20260905150004 30 88 3.2 9.7 0.00 0.00 0.00 62 1018.5
20260905145504 30 107 3.2 9.7 0.00 0.00 0.00 62 1018.6
20260905145005 30 115 3.2 12.9 0.00 0.00 0.00 63 1018.8
20260905144503 30 87 3.2 12.9 0.00 0.00 0.00 63 1018.8
20260905144004 30 78 4.8 11.3 0.00 0.00 0.00 63 1018.8
20260905143503 30 96 4.8 11.3 0.00 0.00 0.00 61 1018.7
20260905143213 30 111 6.4 17.7 0.00 0.00 0.00 61 1018.7
20260905142503 30 125 4.8 17.7 0.00 0.00 0.00 62 1018.7
20260905142214 30 138 3.2 11.3 0.00 0.00 0.00 62 1018.8
20260905141503 30 126 4.8 17.7 0.00 0.00 0.00 62 1018.4
20260905141003 30 116 4.8 16.1 0.00 0.00 0.00 60 1018.5
20260905140503 31 121 4.8 14.5 0.00 0.00 0.00 58 1018.6
20260905140003 31 135 6.4 12.9 0.00 0.00 0.00 54 1018.4
20260905135503 31 130 8.0 22.5 0.00 0.00 0.00 56 1018.7
20260905135217 31 111 6.4 22.5 0.00 0.00 0.00 53 1018.6
20260905134504 31 103 6.4 20.9 0.00 0.00 0.00 53 1018.5
20260905134003 31 93 6.4 20.9 0.00 0.00 0.00 48 1018.5
20260905133716 31 96 8.0 20.9 0.00 0.00 0.00 43 1018.6
20260905133004 32 115 6.4 17.7 0.00 0.00 0.00 49 1018.7
20260905132503 32 115 6.4 17.7 0.00 0.00 0.00 44 1018.7
20260905132004 32 112 4.8 16.1 0.00 0.00 0.00 45 1018.3
20260905131503 32 94 4.8 16.1 0.00 0.00 0.00 46 1018.4
20260905131004 32 69 4.8 11.3 0.00 0.00 0.00 44 1018.4
20260905130503 32 85 4.8 11.3 0.00 0.00 0.00 41 1018.5
20260905130003 32 101 6.4 16.1 0.00 0.00 0.00 40 1018.5
20260905125503 32 100 6.4 16.1 0.00 0.00 0.00 40 1018.6
20260905125003 32 91 4.8 12.9 0.00 0.00 0.00 39 1018.5
20260905124503 32 104 4.8 11.3 0.00 0.00 0.00 39 1018.7
20260905124003 32 115 6.4 16.1 0.00 0.00 0.00 37 1018.6
20260905123504 32 88 4.8 16.1 0.00 0.00 0.00 37 1018.6
20260905123003 32 65 3.2 16.1 0.00 0.00 0.00 39 1018.7
20260905122504 31 85 3.2 16.1 0.00 0.00 0.00 40 1018.8
20260905122216 31 85 3.2 11.3 0.00 0.00 0.00 43 1019.0
20260905121503 31 94 4.8 16.1 0.00 0.00 0.00 48 1019.0
20260905121003 32 103 3.2 12.9 0.00 0.00 0.00 45 1018.9
20260905120503 32 107 4.8 16.1 0.00 0.00 0.00 44 1018.9
20260905120004 31 94 4.8 16.1 0.00 0.00 0.00 45 1019.0
20260905115503 31 99 4.8 12.9 0.00 0.00 0.00 48 1019.0
20260905115003 32 117 3.2 11.3 0.00 0.00 0.00 44 1019.1
20260905114504 32 123 4.8 16.1 0.00 0.00 0.00 43 1019.1
20260905114004 32 121 4.8 16.1 0.00 0.00 0.00 46 1019.2
20260905113504 31 111 4.8 14.5 0.00 0.00 0.00 46 1019.2
20260905113004 32 108 4.8 14.5 0.00 0.00 0.00 46 1019.2
20260905112504 32 123 3.2 11.3 0.00 0.00 0.00 43 1019.2
20260905112003 32 113 3.2 9.7 0.00 0.00 0.00 45 1019.1
20260905111503 32 118 3.2 12.9 0.00 0.00 0.00 49 1019.2
20260905111003 32 128 4.8 12.9 0.00 0.00 0.00 47 1019.4
20260905110504 32 114 3.2 11.3 0.00 0.00 0.00 46 1019.3
20260905110004 32 123 3.2 9.7 0.00 0.00 0.00 48 1019.5
20260905105503 32 147 3.2 9.7 0.00 0.00 0.00 49 1019.4
20260905105004 32 133 3.2 11.3 0.00 0.00 0.00 50 1019.5
20260905104503 31 122 3.2 11.3 0.00 0.00 0.00 51 1019.4
20260905104003 32 127 3.2 9.7 0.00 0.00 0.00 51 1019.6
20260905103503 31 90 3.2 11.3 0.00 0.00 0.00 49 1019.3
20260905103003 31 82 3.2 11.3 0.00 0.00 0.00 54 1019.3
20260905102714 31 92 1.6 11.3 0.00 0.00 0.00 53 1019.6
20260905102003 31 108 3.2 9.7 0.00 0.00 0.00 54 1019.6
20260905101715 32 111 3.2 9.7 0.00 0.00 0.00 53 1019.5
20260905101003 32 114 3.2 12.9 0.00 0.00 0.00 52 1019.6
20260905100716 32 112 3.2 12.9 0.00 0.00 0.00 49 1019.6
20260905100004 31 88 1.6 9.7 0.00 0.00 0.00 52 1019.7